[[{"header":{"parameterUnit":"m.s-1","parameterCategory":2,"la1":30.2992,"la2":30.254,"lo1":-89.0895,"lo2":-89.0443,"dy":0.0025,"dx":0.0025,"nx":19,"ny":19,"refTime":"2026-05-02T09:00:00:Z","depth":"0","parameterNumber":2,"parameterNumberName":"U-component_of_CURRENTS"},"data":[0,0,0,0.2039,0.2041,0.212,0.212,0.2186,0.2187,0,0,0,0,0,0,0,0,0,0,0,0.2002,0.2002,0.2039,0.2042,0.212,0.212,0.2186,0.2187,0,0,0,0,0,0,0,0,0,0,0,0.2001,0.2002,0.2003,0.2042,0.212,0.212,0.2186,0.2132,0,0,0,0,0,0,0,0,0,0,0.2059,0.2028,0.2002,0.2003,0.2042,0.212,0.212,0.213,0.2136,0.2145,0,0.2162,0,0.2186,0.2192,0.2192,0,0,0,0.2029,0.2023,0.2055,0.2003,0.2043,0.212,0.2081,0.2133,0.214,0.2153,0.2163,0.2166,0.2187,0.2192,0.2193,0.2301,0.2302,0,0,0.2025,0.2005,0.2051,0.2059,0.2069,0.2078,0.2083,0.2137,0.2139,0.2163,0.2168,0.2189,0.2193,0.2193,0.2301,0.2302,0,0,0,0.2021,0.2001,0.2032,0.2056,0.2079,0.2081,0.2087,0.2136,0.215,0.2169,0.2189,0.2193,0.2194,0.23,0.2301,0.2349,0,0,0,0.2017,0.2001,0.203,0.2018,0.2078,0.2113,0.2084,0.2146,0.2153,0.2189,0.2193,0.2195,0.2299,0.2301,0.2346,0.2369,0,0,0,0.1997,0.1998,0.2012,0.2017,0.2059,0.2113,0.2129,0.2148,0.2166,0.2192,0.2195,0.2299,0.23,0.2343,0.2365,0.2439,0,0,0,0.1968,0.1994,0.2011,0.2051,0.2059,0.2134,0.2129,0.2176,0.22,0.2193,0.23,0.2301,0.2342,0.2362,0.2436,0.2486,0.2505,0,0,0.1987,0.1996,0.2022,0.204,0.211,0.2122,0.2201,0.2224,0.2227,0.2275,0.2278,0.2347,0.2365,0.2438,0.2575,0.2592,0,0,0,0.202,0.2037,0.2062,0.2107,0.216,0.2219,0.2249,0.2272,0.2322,0.2253,0.2365,0.2375,0.242,0.2444,0.2458,0.2544,0.2308,0.2308,0.2308,0.2004,0.2048,0.2097,0.216,0.221,0.2289,0.234,0.2379,0.237,0.2404,0.2427,0.2534,0.2559,0.257,0.2659,0.2441,0.2442,0.2442,0.2442,0.2031,0.2058,0.2121,0.2182,0.2255,0.2323,0.2429,0.2448,0.2542,0.2498,0.2539,0.2509,0.2588,0.2677,0.2445,0.2445,0.2444,0.2444,0.2444,0.2009,0.2028,0.2073,0.2158,0.2244,0.234,0.2457,0.2532,0.2585,0.2635,0.2681,0.268,0.2749,0.2665,0.2665,0.2666,0.2666,0.2667,0.2667,0.1957,0.2007,0.2043,0.2135,0.2186,0.2303,0.2475,0.2572,0.2711,0.2751,0.2751,0.281,0.2602,0.2582,0.2674,0.2672,0.2672,0.2671,0.267,0.1926,0.1942,0.1995,0.2041,0.2167,0.2252,0.2438,0.2675,0.2794,0.2875,0.2999,0.2822,0.2819,0.2807,0.2793,0.2934,0.2934,0.2934,0.2934,0.1883,0.1902,0.1952,0.2011,0.2109,0.223,0.2398,0.2642,0.2957,0.3105,0.3157,0.3121,0.3106,0.3116,0.3098,0.3088,0.3301,0.3301,0.3302,0.1856,0.1884,0.1896,0.1969,0.207,0.2194,0.2322,0.2583,0.3075,0.3323,0.3276,0.326,0.3207,0.3177,0.3185,0.3153,0.3132,0,0]},{"header":{"parameterUnit":"m.s-1","parameterCategory":2,"la1":30.2992,"la2":30.254,"lo1":-89.0895,"lo2":-89.0443,"dy":0.0025,"dx":0.0025,"nx":19,"ny":19,"refTime":"2026-05-02T09:00:00:Z","depth":"0","parameterNumber":3,"parameterNumberName":"V-component_of_CURRENTS"},"data":[0,0,0,-0.0383,-0.0383,-0.0428,-0.0428,-0.0511,-0.0511,0,0,0,0,0,0,0,0,0,0,0,-0.0361,-0.0361,-0.0383,-0.0383,-0.0428,-0.0428,-0.0511,-0.0511,0,0,0,0,0,0,0,0,0,0,0,-0.0361,-0.0361,-0.0361,-0.0384,-0.0428,-0.0428,-0.051,-0.0472,0,0,0,0,0,0,0,0,0,0,-0.0426,-0.0402,-0.0361,-0.0361,-0.0384,-0.0428,-0.0428,-0.0469,-0.0474,-0.0496,0,-0.0495,0,-0.0507,-0.0517,-0.0517,0,0,0,-0.0388,-0.0398,-0.0408,-0.0361,-0.0384,-0.0428,-0.0409,-0.0472,-0.0477,-0.0502,-0.0496,-0.0499,-0.0508,-0.0518,-0.0518,-0.054,-0.054,0,0,-0.0386,-0.0374,-0.0405,-0.0411,-0.0386,-0.0408,-0.0411,-0.0475,-0.0477,-0.0496,-0.0501,-0.051,-0.0518,-0.0519,-0.054,-0.054,0,0,0,-0.0376,-0.0372,-0.0381,-0.0408,-0.0415,-0.0409,-0.0412,-0.0474,-0.0476,-0.0502,-0.051,-0.0519,-0.052,-0.0541,-0.054,-0.0448,0,0,0,-0.0374,-0.0366,-0.038,-0.0374,-0.0413,-0.0443,-0.041,-0.0472,-0.048,-0.051,-0.0519,-0.0521,-0.0541,-0.0541,-0.0452,-0.0395,0,0,0,-0.036,-0.0365,-0.0366,-0.0373,-0.0391,-0.0442,-0.0448,-0.0474,-0.0485,-0.0517,-0.0521,-0.0542,-0.0541,-0.0455,-0.0402,-0.0352,0,0,0,-0.0353,-0.033,-0.0366,-0.0341,-0.039,-0.0387,-0.0447,-0.046,-0.048,-0.0519,-0.0541,-0.054,-0.0456,-0.0405,-0.0356,-0.0257,-0.0232,0,0,-0.0314,-0.0325,-0.0308,-0.0341,-0.0311,-0.0382,-0.036,-0.0419,-0.0476,-0.0524,-0.0525,-0.0451,-0.0402,-0.0353,-0.0204,-0.0179,0,0,0,-0.0289,-0.0274,-0.0272,-0.0266,-0.0285,-0.0291,-0.0356,-0.0388,-0.0428,-0.0484,-0.0458,-0.043,-0.0402,-0.0351,-0.0331,-0.0479,-0.0536,-0.0536,-0.0536,-0.0218,-0.0222,-0.0183,-0.0187,-0.019,-0.0235,-0.0246,-0.0303,-0.0373,-0.0376,-0.036,-0.0266,-0.021,-0.0195,-0.0349,-0.0376,-0.0376,-0.0376,-0.0375,-0.0136,-0.0102,-0.0109,-0.0074,-0.009,-0.0087,-0.0144,-0.0191,-0.0211,-0.0285,-0.0263,-0.0263,-0.0168,-0.0341,-0.037,-0.0371,-0.0371,-0.0372,-0.0372,-0.0076,-0.0057,-0.0043,0.0011,0.0039,0.0007,0.0055,-0.0023,-0.0112,-0.0092,-0.0058,-0.0059,-0.0206,-0.0087,-0.0087,-0.0086,-0.0086,-0.0085,-0.0085,-0.0017,0.0001,0.0057,0.0098,0.0141,0.019,0.0167,0.0173,0.0134,0.0064,0.0064,-0.0182,-0.0178,-0.0184,-0.0078,-0.0079,-0.008,-0.0081,-0.0081,0.0068,0.0068,0.0162,0.0212,0.0326,0.0457,0.0416,0.0458,0.0414,0.0422,0.0058,0.0138,0.0119,0.0103,0.0104,0.0278,0.0278,0.0278,0.0278,0.0126,0.013,0.027,0.0376,0.0509,0.0587,0.0785,0.0767,0.0475,0.0287,0.0118,0.0046,0.0038,0.0007,-0.0007,-0.0013,0.0127,0.0127,0.0126,0.0192,0.0226,0.0345,0.0444,0.0594,0.0769,0.0981,0.1036,0.0528,0.0097,-0.0109,-0.0102,-0.0239,-0.024,-0.0318,-0.0325,-0.0346,0,0]}],[{"header":{"parameterUnit":"m.s-1","parameterCategory":2,"la1":30.2992,"la2":30.254,"lo1":-89.0895,"lo2":-89.0443,"dy":0.0025,"dx":0.0025,"nx":19,"ny":19,"refTime":"2026-05-02T09:00:00:Z","depth":"2","parameterNumber":2,"parameterNumberName":"U-component_of_CURRENTS"},"data":[0,0,0,0.2018,0.202,0.21,0.21,0.2168,0.2168,0,0,0,0,0,0,0,0,0,0,0,0.198,0.1981,0.2018,0.202,0.21,0.21,0.2167,0.2168,0,0,0,0,0,0,0,0,0,0,0,0.198,0.198,0.1981,0.2021,0.21,0.21,0.2167,0.2113,0,0,0,0,0,0,0,0,0,0,0.2038,0.2007,0.198,0.1981,0.2021,0.21,0.21,0.211,0.2116,0.2126,0,0.2143,0,0.2168,0.2173,0.2173,0,0,0,0.2007,0.2003,0.2034,0.1981,0.2022,0.21,0.206,0.2114,0.212,0.2134,0.2144,0.2148,0.2169,0.2174,0.2174,0.2283,0.2284,0,0,0.2003,0.1984,0.203,0.2039,0.2049,0.2058,0.2063,0.2118,0.212,0.2145,0.215,0.217,0.2174,0.2175,0.2282,0.2283,0,0,0,0.1999,0.198,0.2011,0.2035,0.2059,0.206,0.2066,0.2117,0.2131,0.215,0.2171,0.2175,0.2175,0.2282,0.2283,0.2331,0,0,0,0.1996,0.198,0.2009,0.1997,0.2058,0.2094,0.2065,0.2127,0.2134,0.2171,0.2175,0.2176,0.2281,0.2282,0.2328,0.2351,0,0,0,0.1975,0.1978,0.1991,0.1996,0.2039,0.2094,0.2109,0.2129,0.2148,0.2173,0.2176,0.228,0.2282,0.2325,0.2347,0.2418,0,0,0,0.1947,0.1973,0.199,0.203,0.2039,0.2114,0.2109,0.2157,0.2182,0.2175,0.2281,0.2283,0.2325,0.2344,0.2414,0.2442,0.2459,0,0,0.1966,0.1975,0.2001,0.2019,0.2089,0.2101,0.218,0.2205,0.2208,0.2256,0.2259,0.2329,0.2347,0.2417,0.2529,0.2544,0,0,0,0.1998,0.2016,0.2041,0.2086,0.2139,0.2197,0.2229,0.2252,0.2303,0.2234,0.2346,0.2356,0.2399,0.2409,0.2421,0.229,0.229,0.2289,0.2289,0.1983,0.2027,0.2075,0.2137,0.2187,0.2267,0.2318,0.2358,0.235,0.2385,0.2408,0.2512,0.2523,0.2532,0.2422,0.2422,0.2422,0.2422,0.2423,0.2009,0.2036,0.2098,0.2159,0.2232,0.23,0.2406,0.2427,0.252,0.2478,0.2518,0.2475,0.2548,0.2427,0.2426,0.2425,0.2425,0.2425,0.2424,0.1988,0.2007,0.2051,0.2136,0.2223,0.2318,0.2434,0.2511,0.2563,0.2613,0.2641,0.264,0.2545,0.2641,0.2641,0.2642,0.2642,0.2643,0.2643,0.1937,0.1986,0.2023,0.2114,0.2165,0.2282,0.2453,0.2547,0.2675,0.2708,0.2708,0.2586,0.2579,0.2559,0.2649,0.2648,0.2647,0.2647,0.2646,0.1906,0.1922,0.1975,0.202,0.2146,0.2208,0.2407,0.2627,0.2745,0.2814,0.2773,0.2767,0.276,0.275,0.2735,0.2866,0.2866,0.2866,0.2866,0.1864,0.1883,0.1932,0.1989,0.2085,0.2179,0.2285,0.2428,0.2637,0.2688,0.2694,0.2619,0.2617,0.2595,0.2588,0.2567,0.2654,0.2653,0.2652,0.1837,0.1864,0.1876,0.1948,0.2045,0.2121,0.2127,0.2117,0.2342,0.2631,0.2529,0.2876,0.2783,0.2772,0.2749,0.2734,0.2704,0,0]},{"header":{"parameterUnit":"m.s-1","parameterCategory":2,"la1":30.2992,"la2":30.254,"lo1":-89.0895,"lo2":-89.0443,"dy":0.0025,"dx":0.0025,"nx":19,"ny":19,"refTime":"2026-05-02T09:00:00:Z","depth":"2","parameterNumber":3,"parameterNumberName":"V-component_of_CURRENTS"},"data":[0,0,0,-0.0287,-0.0288,-0.0334,-0.0335,-0.0414,-0.0415,0,0,0,0,0,0,0,0,0,0,0,-0.0265,-0.0265,-0.0287,-0.0288,-0.0334,-0.0335,-0.0414,-0.0415,0,0,0,0,0,0,0,0,0,0,0,-0.0264,-0.0265,-0.0265,-0.0288,-0.0334,-0.0335,-0.0414,-0.0375,0,0,0,0,0,0,0,0,0,0,-0.0327,-0.0305,-0.0265,-0.0265,-0.0288,-0.0334,-0.0335,-0.0373,-0.0377,-0.0398,0,-0.0397,0,-0.041,-0.042,-0.042,0,0,0,-0.0292,-0.0301,-0.0312,-0.0265,-0.0289,-0.0334,-0.0315,-0.0375,-0.038,-0.0404,-0.0398,-0.0402,-0.0411,-0.0421,-0.0421,-0.044,-0.0439,0,0,-0.0289,-0.0279,-0.0308,-0.0314,-0.0292,-0.0313,-0.0316,-0.0378,-0.0381,-0.0399,-0.0404,-0.0413,-0.0421,-0.0422,-0.044,-0.044,0,0,0,-0.0279,-0.0277,-0.0285,-0.0311,-0.0319,-0.0314,-0.0318,-0.0379,-0.038,-0.0404,-0.0414,-0.0422,-0.0423,-0.0441,-0.044,-0.0353,0,0,0,-0.0278,-0.0271,-0.0284,-0.0279,-0.0317,-0.0348,-0.0317,-0.0376,-0.0383,-0.0413,-0.0422,-0.0424,-0.0441,-0.044,-0.0356,-0.03,0,0,0,-0.0264,-0.027,-0.0272,-0.0278,-0.0297,-0.0347,-0.0353,-0.0378,-0.0389,-0.0421,-0.0424,-0.0441,-0.044,-0.0359,-0.0306,-0.0257,0,0,0,-0.0257,-0.0235,-0.0271,-0.0247,-0.0297,-0.0292,-0.0352,-0.0365,-0.0385,-0.0422,-0.0441,-0.044,-0.036,-0.031,-0.0261,-0.0167,-0.0143,0,0,-0.0219,-0.023,-0.0213,-0.0246,-0.0215,-0.0286,-0.0263,-0.0323,-0.0379,-0.0424,-0.0425,-0.0355,-0.0306,-0.0258,-0.0112,-0.0089,0,0,0,-0.0194,-0.0178,-0.0176,-0.017,-0.0188,-0.0195,-0.026,-0.0291,-0.0332,-0.0387,-0.036,-0.0332,-0.0304,-0.0256,-0.0237,-0.0435,-0.0435,-0.0436,-0.0436,-0.0126,-0.0128,-0.0088,-0.0091,-0.0093,-0.0137,-0.0148,-0.0205,-0.0275,-0.028,-0.0265,-0.0172,-0.012,-0.0105,-0.028,-0.028,-0.028,-0.0279,-0.0279,-0.0043,-0.001,-0.0015,0.0021,0.0005,0.0009,-0.0047,-0.0096,-0.0116,-0.0191,-0.0169,-0.0171,-0.0079,-0.0272,-0.0274,-0.0275,-0.0275,-0.0276,-0.0276,0.0014,0.0034,0.0047,0.0102,0.013,0.0098,0.0147,0.0068,-0.0021,-0.0002,0.0029,0.0028,-0.0109,0.0002,0.0002,0.0003,0.0003,0.0003,0.0004,0.0069,0.0088,0.0143,0.0186,0.0228,0.0277,0.0254,0.026,0.0218,0.0148,0.0148,-0.0077,-0.0086,-0.0093,0.0011,0.001,0.0009,0.0008,0.0008,0.0152,0.0151,0.0244,0.0294,0.0409,0.0544,0.05,0.0537,0.0492,0.0498,0.0226,0.0219,0.0201,0.0186,0.0185,0.0355,0.0355,0.0355,0.0355,0.0208,0.0212,0.0349,0.0455,0.0588,0.0673,0.0863,0.0828,0.0652,0.0516,0.0509,0.0465,0.0448,0.0439,0.0418,0.0419,0.065,0.0651,0.0651,0.0272,0.0305,0.0422,0.0521,0.0673,0.0856,0.106,0.104,0.0768,0.0659,0.0522,0.0382,0.0294,0.0277,0.0239,0.0215,0.0206,0,0]}],[{"header":{"parameterUnit":"m.s-1","parameterCategory":2,"la1":30.2992,"la2":30.254,"lo1":-89.0895,"lo2":-89.0443,"dy":0.0025,"dx":0.0025,"nx":19,"ny":19,"refTime":"2026-05-02T09:00:00:Z","depth":"4","parameterNumber":2,"parameterNumberName":"U-component_of_CURRENTS"},"data":[0,0,0,0.1282,0.1285,0.1423,0.1423,0.1561,0.1563,0,0,0,0,0,0,0,0,0,0,0,0.1226,0.1227,0.1282,0.1285,0.1423,0.1423,0.1561,0.1563,0,0,0,0,0,0,0,0,0,0,0,0.1226,0.1227,0.1228,0.1286,0.1423,0.1423,0.1561,0.1466,0,0,0,0,0,0,0,0,0,0,0.1337,0.1301,0.1227,0.1228,0.1286,0.1423,0.1424,0.1462,0.1472,0.1489,0,0.1511,0,0.1544,0.1571,0.1572,0,0,0,0.1283,0.1293,0.1323,0.1228,0.1288,0.1422,0.136,0.1468,0.1479,0.1502,0.1513,0.1519,0.1547,0.1572,0.1573,0.17,0.17,0,0,0.1276,0.126,0.1315,0.133,0.1324,0.1356,0.1364,0.1475,0.1491,0.1513,0.1522,0.1549,0.1573,0.1574,0.1699,0.17,0,0,0,0.1255,0.1255,0.1283,0.1323,0.1355,0.136,0.137,0.1486,0.1493,0.1524,0.1551,0.1574,0.1575,0.1699,0.1699,0.1769,0,0,0,0.125,0.1243,0.1279,0.1273,0.1353,0.1431,0.1378,0.1485,0.1499,0.155,0.1574,0.1576,0.1698,0.1699,0.1767,0.1762,0,0,0,0.122,0.1241,0.1254,0.1271,0.1332,0.143,0.1444,0.1489,0.1515,0.1572,0.1577,0.1698,0.1699,0.1764,0.1759,0.183,0,0,0,0.1201,0.1222,0.1254,0.1294,0.1331,0.1414,0.1444,0.1533,0.1586,0.1574,0.1698,0.1699,0.1763,0.1757,0.1827,0.1616,0,0,0,0.1211,0.1224,0.1247,0.1278,0.1349,0.1395,0.1488,0.1579,0.1602,0.1658,0.1661,0.1768,0.1759,0.183,0.1678,0,0,0,0,0.1239,0.1257,0.1284,0.1339,0.14,0.1485,0.1564,0.1615,0.1714,0.1639,0.1769,0.176,0.1804,0.1672,0.1704,0.1704,0.1704,0.1704,0.1704,0.1223,0.1264,0.1311,0.1375,0.1439,0.1562,0.1632,0.1712,0.1741,0.1804,0.182,0.1918,0.1781,0.184,0.1841,0.1841,0.1841,0.1842,0.1842,0.1229,0.1247,0.1329,0.1394,0.1491,0.1586,0.1725,0.1785,0.1894,0.1886,0.1927,0.1756,0.1849,0.1847,0.1846,0.1846,0.1845,0.1845,0.1844,0.1197,0.1209,0.1274,0.1374,0.1499,0.1629,0.1744,0.1853,0.1945,0.1987,0.1886,0.1966,0.1959,0.2048,0.2049,0.2049,0.2049,0.2049,0.205,0.1125,0.1185,0.1242,0.136,0.1435,0.1577,0.1778,0.1854,0.1981,0.1918,0.2029,0.1988,0.1981,0.197,0.2055,0.2054,0.2053,0.2053,0.2052,0.1065,0.1107,0.1172,0.1242,0.1403,0.1477,0.1691,0.1812,0.1893,0.1901,0.1885,0.1892,0.1846,0.1843,0.1826,0.1871,0.1868,0.1866,0,0.101,0.1038,0.1116,0.119,0.1278,0.1417,0.1491,0.1627,0.1736,0.167,0.1893,0.1869,0.1874,0.1816,0.1809,0.1784,0,0,0,0.097,0.1003,0.1032,0.1124,0.1208,0.1339,0.1506,0.1511,0.1703,0.1738,0.1806,0.1821,0.1975,0.2069,0.2015,0.2007,0.1987,0,0]},{"header":{"parameterUnit":"m.s-1","parameterCategory":2,"la1":30.2992,"la2":30.254,"lo1":-89.0895,"lo2":-89.0443,"dy":0.0025,"dx":0.0025,"nx":19,"ny":19,"refTime":"2026-05-02T09:00:00:Z","depth":"4","parameterNumber":3,"parameterNumberName":"V-component_of_CURRENTS"},"data":[0,0,0,0.0248,0.0247,0.0211,0.0211,0.0159,0.0158,0,0,0,0,0,0,0,0,0,0,0,0.0261,0.0262,0.0248,0.0247,0.0211,0.0211,0.0159,0.0158,0,0,0,0,0,0,0,0,0,0,0,0.0261,0.0262,0.0262,0.0247,0.0211,0.0211,0.0159,0.0184,0,0,0,0,0,0,0,0,0,0,0.0219,0.0233,0.0261,0.0262,0.0247,0.0211,0.0211,0.0186,0.0183,0.0177,0,0.0182,0,0.0174,0.0156,0.0156,0,0,0,0.0234,0.0236,0.0232,0.0262,0.0247,0.0211,0.0224,0.0184,0.0181,0.0174,0.0181,0.0179,0.0173,0.0156,0.0155,0.0151,0.0151,0,0,0.0236,0.0245,0.0235,0.0231,0.0251,0.0225,0.0223,0.0182,0.0181,0.0181,0.0178,0.0172,0.0155,0.0155,0.0151,0.0151,0,0,0,0.0251,0.0247,0.0244,0.0233,0.023,0.0224,0.0222,0.0182,0.0183,0.0177,0.0172,0.0155,0.0155,0.015,0.0151,0.0203,0,0,0,0.0251,0.0256,0.0245,0.0248,0.0231,0.0206,0.0223,0.0186,0.0181,0.0172,0.0155,0.0154,0.015,0.015,0.0201,0.0246,0,0,0,0.0261,0.0256,0.0258,0.0249,0.024,0.0206,0.0204,0.0185,0.0179,0.0156,0.0154,0.015,0.015,0.0199,0.0242,0.0236,0,0,0,0.0262,0.0284,0.0258,0.0279,0.024,0.0251,0.0204,0.0195,0.018,0.0155,0.015,0.0151,0.0199,0.024,0.0234,0.0263,0,0,0,0.0295,0.0288,0.0301,0.0278,0.0307,0.0254,0.027,0.0223,0.0185,0.016,0.016,0.0201,0.0242,0.0236,0.0293,0,0,0,0,0.0315,0.0327,0.0331,0.0338,0.0332,0.0324,0.0276,0.0249,0.0212,0.018,0.0198,0.0222,0.0216,0.0227,0.0153,0.0153,0.0153,0.0153,0.0153,0.0366,0.0365,0.0398,0.0398,0.04,0.0368,0.0353,0.0307,0.0258,0.0245,0.0261,0.0291,0.0306,0.0243,0.0244,0.0244,0.0244,0.0244,0.0244,0.0424,0.0448,0.0448,0.0479,0.0471,0.0475,0.0425,0.0383,0.0345,0.0305,0.0295,0.0278,0.0249,0.0248,0.0248,0.0247,0.0247,0.0246,0.0246,0.0459,0.0475,0.0491,0.0535,0.0563,0.054,0.0555,0.0497,0.0407,0.0405,0.0374,0.0323,0.0321,0.0378,0.0378,0.0378,0.0378,0.0378,0.0378,0.0489,0.051,0.0555,0.0595,0.0631,0.066,0.0629,0.0597,0.0505,0.0453,0.0412,0.0336,0.0332,0.0328,0.0381,0.0381,0.038,0.038,0.038,0.0536,0.0543,0.061,0.0654,0.0738,0.0759,0.0741,0.0654,0.0611,0.0542,0.046,0.0455,0.0436,0.0429,0.0428,0.0513,0.0514,0.0514,0,0.0566,0.0574,0.0663,0.0739,0.081,0.0821,0.0792,0.0737,0.0609,0.0602,0.0588,0.05,0.0494,0.0475,0.047,0.0471,0,0,0,0.06,0.0621,0.0689,0.0761,0.0841,0.0816,0.0786,0.0744,0.0641,0.0594,0.0529,0.0525,0.0478,0.039,0.0348,0.0343,0.0334,0,0]}]]